Back to catalog

AAUSAT3

AliveScienceSSO
NORAD 39087·PAYLOAD·🇩🇰 Denmark

Launched Feb 25, 2013 from Satish Dhawan Space Centre

Loading…

Next Passes (next 24 hours)

TLE

FreshSource: Space-Track

Epoch: Sep 14, 2026, 11:15 UTC

1 39087U 13009B   26257.46928753  .00000431  00000-0  15037-3 0  9993
2 39087  98.3733  79.2585 0010436 308.0293  51.9953 14.40029684710027

Track AAUSAT3 in real time with AllMySat

Download on the App Store